Flora, IL

1:54 PM CDT on July 28, 2016 (GMT -0500)
Flora Municipal

Weather History for KFOA - March, 2013

Change the Weather History Date:

Friday, March 29, 2013

  Actual Average (KEVV) Record (KEVV)
Temperature  
Mean Temperature 46 °F 50 °F  
Max Temperature 54 °F 62 °F 82 °F (1963)
Min Temperature 37 °F 39 °F 23 °F (1955)
Degree Days  
Heating Degree Days 20 15  
Month to date heating degree days 561  
Since 1 July heating degree days 4135  
Cooling Degree Days 0 0  
Month to date cooling degree days 0  
Year to date cooling degree days 0  
Moisture  
Dew Point 38 °F    
Average Humidity 73    
Maximum Humidity 99    
Minimum Humidity 58    
Precipitation  
Precipitation 0.00 in 0.15 in 1.44 in (1985)
Month to date precipitation 3.95  
Year to date precipitation 10.22  
Snow  
Snow 0.00 in 0.00 in 2.80 in (1970)
Month to date snowfall 1.0  
Since 1 July snowfall 11.7  
Snow Depth -    
Sea Level Pressure  
Sea Level Pressure 30.26 in    
Wind  
Wind Speed 4 mph (ESE)    
Max Wind Speed 8 mph    
Max Gust Speed -    
Visibility 9 miles    
Events      
T = Trace of Precipitation, MM = Missing Value Source: NWS Daily Summary

Daily Weather History Graph

Daily Weather History Graph

Search for Another Location

Airport or City:

Trip Planner

Search our weather history database for the weather conditions in past years. The results will help you decide how hot, cold, wet, or windy it might be!

Date:

Astronomy

Mar. 29, 2013 Rise Set
Actual Time 6:42 AM CDT 7:14 PM CDT
Civil Twilight 6:16 AM CDT 7:41 PM CDT
Nautical Twilight 5:44 AM CDT 8:12 PM CDT
Astronomical Twilight 5:12 AM CDT 8:45 PM CDT
Moon 10:12 PM CDT (3/29) 7:53 AM CDT (3/29)
Length of Visible Light 13h 25m
Length of Day
12h 31m
Waning Gibbous, 93% of the Moon is Illuminated
Mar 29
Waning Gibbous
Apr 2
Last Quarter
Apr 10
New
Apr 18
First Quarter
Apr 25
Full

Hourly Weather History & Observations

Time (CDT) Temp. Windchill Dew Point Humidity Pressure Visibility Wind Dir Wind Speed Gust Speed Precip Events Conditions
12:15 AM 43.2 °F 40.5 °F 29.3 °F 58% 30.30 in 10.0 mi East 4.6 mph - N/A   Scattered Clouds
12:35 AM 42.1 °F 40.2 °F 31.3 °F 66% 30.30 in 10.0 mi East 3.5 mph - N/A   Scattered Clouds
12:55 AM 43.3 °F 41.7 °F 29.5 °F 58% 30.30 in 10.0 mi East 3.5 mph - N/A   Mostly Cloudy
1:15 AM 42.3 °F 38.6 °F 32.5 °F 68% 30.29 in 10.0 mi ESE 5.8 mph - N/A   Mostly Cloudy
1:35 AM 40.8 °F - 32.4 °F 72% 30.30 in 10.0 mi Calm Calm - N/A   Mostly Cloudy
1:55 AM 41.7 °F - 32.5 °F 70% 30.30 in 10.0 mi Calm Calm - N/A   Mostly Cloudy
2:15 AM 41.4 °F 39.4 °F 33.3 °F 73% 30.29 in 10.0 mi SSE 3.5 mph - N/A   Mostly Cloudy
2:35 AM 42.3 °F - 32.0 °F 67% 30.29 in 10.0 mi Calm Calm - N/A   Scattered Clouds
2:55 AM 43.0 °F - 30.9 °F 62% 30.28 in 10.0 mi Calm Calm - N/A   Mostly Cloudy
3:15 AM 43.0 °F 41.3 °F 30.7 °F 62% 30.28 in 10.0 mi ENE 3.5 mph - N/A   Overcast
3:35 AM 42.8 °F - 31.6 °F 65% 30.28 in 10.0 mi Calm Calm - N/A   Overcast
3:55 AM 41.9 °F 40.0 °F 32.9 °F 70% 30.28 in 10.0 mi ESE 3.5 mph - N/A   Overcast
4:15 AM 41.2 °F 37.3 °F 33.3 °F 73% 30.27 in 10.0 mi SE 5.8 mph - N/A   Overcast
4:35 AM 41.4 °F 37.6 °F 33.4 °F 73% 30.27 in 10.0 mi SE 5.8 mph - N/A   Overcast
4:55 AM 41.7 °F 38.0 °F 33.3 °F 72% 30.27 in 10.0 mi ESE 5.8 mph - N/A   Overcast
5:15 AM 41.9 °F 38.2 °F 33.4 °F 72% 30.27 in 10.0 mi SE 5.8 mph - N/A   Overcast
5:35 AM 41.9 °F 39.0 °F 33.3 °F 71% 30.27 in 10.0 mi SE 4.6 mph - N/A   Overcast
5:55 AM 41.5 °F 37.8 °F 33.3 °F 72% 30.27 in 10.0 mi SE 5.8 mph - N/A   Overcast
6:15 AM 41.7 °F 38.0 °F 32.9 °F 71% 30.27 in 10.0 mi ESE 5.8 mph - N/A   Mostly Cloudy
6:35 AM 41.0 °F 38.0 °F 33.4 °F 74% 30.27 in 10.0 mi ESE 4.6 mph - N/A   Mostly Cloudy
6:55 AM 41.0 °F 38.0 °F 34.2 °F 77% 30.27 in 10.0 mi ESE 4.6 mph - N/A   Mostly Cloudy
7:15 AM 41.9 °F 40.0 °F 33.1 °F 71% 30.28 in 10.0 mi East 3.5 mph - N/A   Overcast
7:35 AM 42.3 °F 38.6 °F 32.9 °F 69% 30.29 in 10.0 mi East 5.8 mph - N/A   Overcast
7:55 AM 43.0 °F 41.3 °F 33.1 °F 68% 30.29 in 10.0 mi East 3.5 mph - N/A   Overcast
8:15 AM 43.7 °F 41.1 °F 33.6 °F 68% 30.29 in 10.0 mi ESE 4.6 mph - N/A   Overcast
8:35 AM 44.1 °F 41.5 °F 32.5 °F 64% 30.29 in 10.0 mi East 4.6 mph - N/A   Overcast
8:55 AM 44.4 °F 40.5 °F 33.3 °F 65% 30.29 in 10.0 mi ESE 6.9 mph - N/A   Overcast
9:15 AM 44.6 °F 41.4 °F 34.2 °F 67% 30.29 in 10.0 mi ESE 5.8 mph - N/A   Overcast
9:35 AM 45.3 °F 42.3 °F 34.5 °F 66% 30.28 in 10.0 mi ESE 5.8 mph - N/A   Overcast
9:55 AM 46.2 °F 43.3 °F 35.8 °F 67% 30.29 in 10.0 mi ESE 5.8 mph - N/A   Overcast
10:15 AM 47.5 °F - 36.9 °F 67% 30.29 in 10.0 mi ESE 5.8 mph - N/A   Overcast
10:35 AM 48.2 °F - 37.9 °F 68% 30.28 in 10.0 mi East 4.6 mph - N/A   Overcast
10:55 AM 49.6 °F - 39.7 °F 69% 30.28 in 10.0 mi ESE 6.9 mph - N/A   Mostly Cloudy
11:15 AM 50.9 °F - 41.4 °F 70% 30.28 in 10.0 mi ESE 8.1 mph - N/A   Mostly Cloudy
11:35 AM 51.8 °F - 41.0 °F 67% 30.28 in 10.0 mi East 5.8 mph - N/A   Overcast
11:55 AM 51.3 °F - 41.5 °F 69% 30.27 in 10.0 mi East 6.9 mph - N/A   Mostly Cloudy
12:15 PM 51.3 °F - 41.4 °F 69% 30.27 in 10.0 mi East 5.8 mph - N/A   Overcast
12:35 PM 51.3 °F - 41.4 °F 69% 30.27 in 10.0 mi ESE 5.8 mph - N/A   Overcast
12:55 PM 51.8 °F - 41.7 °F 68% 30.26 in 10.0 mi ESE 5.8 mph - N/A   Overcast
1:15 PM 51.8 °F - 41.4 °F 68% 30.26 in 10.0 mi SSE 3.5 mph - N/A   Overcast
1:35 PM 52.7 °F - 42.3 °F 68% 30.25 in 10.0 mi SSE 4.6 mph - N/A   Mostly Cloudy
1:55 PM 52.9 °F - 42.1 °F 67% 30.25 in 10.0 mi ESE 3.5 mph - N/A   Mostly Cloudy
2:15 PM 53.1 °F - 41.7 °F 65% 30.24 in 10.0 mi East 4.6 mph - N/A   Overcast
2:35 PM 54.3 °F - 42.3 °F 64% 30.24 in 10.0 mi East 6.9 mph - N/A   Mostly Cloudy
2:55 PM 53.4 °F - 42.1 °F 65% 30.23 in 10.0 mi NE 4.6 mph - N/A   Overcast
3:15 PM 53.6 °F - 42.4 °F 66% 30.23 in 10.0 mi East 6.9 mph - N/A   Overcast
3:35 PM 53.6 °F - 42.3 °F 65% 30.23 in 10.0 mi ENE 5.8 mph - N/A   Overcast
3:55 PM 53.2 °F - 42.4 °F 67% 30.23 in 10.0 mi ESE 5.8 mph - N/A   Overcast
4:15 PM 53.1 °F - 42.6 °F 68% 30.23 in 10.0 mi ESE 4.6 mph - N/A   Overcast
4:35 PM 52.9 °F - 42.1 °F 67% 30.22 in 10.0 mi ESE 3.5 mph - N/A   Overcast
4:55 PM 53.1 °F - 42.8 °F 68% 30.22 in 10.0 mi Calm Calm - N/A   Overcast
5:15 PM 52.9 °F - 42.4 °F 68% 30.22 in 10.0 mi SE 3.5 mph - N/A   Overcast
5:35 PM 52.9 °F - 42.6 °F 68% 30.22 in 10.0 mi South 4.6 mph - N/A   Overcast
5:55 PM 52.9 °F - 42.6 °F 68% 30.22 in 10.0 mi Calm Calm - N/A   Overcast
6:15 PM 53.1 °F - 42.3 °F 67% 30.22 in 10.0 mi Calm Calm - N/A   Overcast
6:35 PM 52.7 °F - 43.2 °F 70% 30.21 in 10.0 mi SE 4.6 mph - N/A   Mostly Cloudy
6:55 PM 50.7 °F - 43.5 °F 76% 30.21 in 10.0 mi SE 3.5 mph - N/A   Clear
7:15 PM 48.0 °F - 43.0 °F 83% 30.22 in 10.0 mi Calm Calm - N/A   Clear
7:35 PM 48.0 °F - 43.0 °F 83% 30.22 in 10.0 mi Calm Calm - N/A   Clear
7:55 PM 45.1 °F - 41.7 °F 88% 30.22 in 10.0 mi Calm Calm - N/A   Clear
8:15 PM 48.2 °F - 42.1 °F 79% 30.23 in 10.0 mi Calm Calm - N/A   Clear
8:35 PM 43.2 °F - 39.7 °F 88% 30.23 in 10.0 mi Calm Calm - N/A   Clear
8:55 PM 43.3 °F - 40.8 °F 91% 30.24 in 10.0 mi Calm Calm - N/A   Clear
9:15 PM 41.5 °F - 40.3 °F 95% 30.24 in 7.0 mi Calm Calm - N/A   Clear
9:35 PM 41.0 °F - 40.1 °F 97% 30.24 in 5.0 mi Calm Calm - N/A   Clear
9:55 PM 40.3 °F - 38.1 °F 92% 30.25 in 10.0 mi Calm Calm - N/A   Clear
10:15 PM 39.4 °F - 38.8 °F 98% 30.25 in 3.0 mi Calm Calm - N/A   Clear
10:35 PM 41.2 °F - 40.5 °F 97% 30.25 in 5.0 mi Calm Calm - N/A   Clear
10:55 PM 38.3 °F - 37.6 °F 97% 30.24 in 4.0 mi Calm Calm - N/A   Clear
11:15 PM 38.7 °F - 38.3 °F 99% 30.24 in 2.0 mi Calm Calm - N/A   Clear
11:35 PM 37.9 °F - 37.4 °F 98% 30.23 in 3.0 mi Calm Calm - N/A   Clear
11:55 PM 37.0 °F - 36.9 °F 99% 30.23 in 2.5 mi Calm Calm - N/A   Clear